Time,TemperatureF,DewpointF,PressureIn,WindDirection,WindDirectionDegrees,WindSpeedMPH,WindSpeedGustMPH,Humidity,HourlyPrecipIn,Conditions,Clouds,dailyrainin,SoftwareType,DateUTC
2013-02-12 00:01:00,20.0,15.0,30.16,NW,325,1.0,5.0,82,0.00,,,0.00,,2013-02-12 06:01:00,
2013-02-12 00:12:00,20.0,16.0,30.16,WNW,297,2.0,4.0,83,0.00,,,0.00,,2013-02-12 06:12:00,
2013-02-12 00:21:00,20.0,16.0,30.16,WNW,297,2.0,4.0,83,0.00,,,0.00,,2013-02-12 06:21:00,
2013-02-12 00:32:00,20.0,16.0,30.17,WNW,291,1.0,4.0,83,0.00,,,0.00,,2013-02-12 06:32:00,
2013-02-12 00:42:00,20.0,16.0,30.17,WNW,297,2.0,5.0,83,0.00,,,0.00,,2013-02-12 06:42:00,
2013-02-12 00:51:00,20.0,16.0,30.17,WNW,297,2.0,5.0,83,0.00,,,0.00,,2013-02-12 06:51:00,
2013-02-12 01:01:00,20.0,16.0,30.17,West,280,1.0,5.0,83,0.00,,,0.00,,2013-02-12 07:01:00,
2013-02-12 01:11:00,20.0,16.0,30.17,West,280,1.0,5.0,83,0.00,,,0.00,,2013-02-12 07:11:00,
2013-02-12 01:21:00,20.0,16.0,30.18,West,277,0.0,3.0,83,0.00,,,0.00,,2013-02-12 07:21:00,
2013-02-12 01:31:00,20.0,16.0,30.17,WSW,256,0.0,2.0,83,0.00,,,0.00,,2013-02-12 07:31:00,
2013-02-12 01:41:00,20.0,16.0,30.17,WSW,256,0.0,2.0,83,0.00,,,0.00,,2013-02-12 07:41:00,
2013-02-12 01:51:00,20.0,16.0,30.17,WSW,256,0.0,2.0,83,0.00,,,0.00,,2013-02-12 07:51:00,
2013-02-12 02:01:00,21.0,17.0,30.16,SW,233,0.0,2.0,84,0.00,,,0.00,,2013-02-12 08:01:00,
2013-02-12 02:11:00,21.0,17.0,30.16,SW,233,0.0,2.0,84,0.00,,,0.00,,2013-02-12 08:11:00,
2013-02-12 02:21:00,21.0,17.0,30.16,SW,235,0.0,1.0,84,0.00,,,0.00,,2013-02-12 08:21:00,
2013-02-12 02:32:00,21.0,17.0,30.16,SW,232,0.0,2.0,84,0.00,,,0.00,,2013-02-12 08:32:00,
2013-02-12 02:41:00,21.0,17.0,30.16,SW,232,0.0,2.0,84,0.00,,,0.00,,2013-02-12 08:41:00,
2013-02-12 02:52:00,21.0,17.0,30.16,SW,214,0.0,2.0,85,0.00,,,0.00,,2013-02-12 08:52:00,
2013-02-12 03:01:00,21.0,17.0,30.15,SSE,160,1.0,3.0,85,0.00,,,0.00,,2013-02-12 09:01:00,
2013-02-12 03:11:00,21.0,17.0,30.15,SSE,160,1.0,3.0,85,0.00,,,0.00,,2013-02-12 09:11:00,
2013-02-12 03:21:00,22.0,18.0,30.15,SSW,193,0.0,4.0,86,0.00,,,0.00,,2013-02-12 09:21:00,
2013-02-12 03:32:00,22.0,18.0,30.15,SSW,193,0.0,4.0,86,0.00,,,0.00,,2013-02-12 09:32:00,
2013-02-12 03:41:00,22.0,18.0,30.15,SSW,193,0.0,4.0,86,0.00,,,0.00,,2013-02-12 09:41:00,
2013-02-12 03:51:00,22.0,19.0,30.14,South,187,2.0,4.0,87,0.00,,,0.00,,2013-02-12 09:51:00,
2013-02-12 04:01:00,22.0,18.0,30.13,SSW,206,1.0,3.0,86,0.00,,,0.00,,2013-02-12 10:01:00,
2013-02-12 04:11:00,20.0,17.0,30.12,South,190,0.0,2.0,87,0.00,,,0.00,,2013-02-12 10:11:00,
2013-02-12 04:21:00,20.0,17.0,30.12,South,190,0.0,2.0,87,0.00,,,0.00,,2013-02-12 10:21:00,
2013-02-12 04:32:00,19.0,16.0,30.12,SW,214,1.0,2.0,89,0.00,,,0.00,,2013-02-12 10:32:00,
2013-02-12 04:43:00,19.0,16.0,30.12,SW,214,1.0,2.0,89,0.00,,,0.00,,2013-02-12 10:43:00,
2013-02-12 04:51:00,19.0,16.0,30.11,WSW,250,1.0,2.0,89,0.00,,,0.00,,2013-02-12 10:51:00,
2013-02-12 05:01:00,19.0,17.0,30.11,SW,232,3.0,4.0,90,0.00,,,0.00,,2013-02-12 11:01:00,
2013-02-12 05:11:00,19.0,17.0,30.11,SW,232,3.0,4.0,90,0.00,,,0.00,,2013-02-12 11:11:00,
2013-02-12 05:21:00,20.0,18.0,30.11,SW,225,4.0,6.0,90,0.00,,,0.00,,2013-02-12 11:21:00,
2013-02-12 05:32:00,20.0,17.0,30.10,SW,224,2.0,5.0,89,0.00,,,0.00,,2013-02-12 11:32:00,
2013-02-12 05:41:00,20.0,17.0,30.10,SW,224,2.0,5.0,89,0.00,,,0.00,,2013-02-12 11:41:00,
2013-02-12 05:52:00,20.0,17.0,30.09,SW,221,2.0,4.0,89,0.00,,,0.00,,2013-02-12 11:52:00,
2013-02-12 06:01:00,20.0,17.0,30.09,SW,222,4.0,6.0,89,0.00,,,0.00,,2013-02-12 12:01:00,
2013-02-12 06:11:00,20.0,17.0,30.09,SW,222,4.0,6.0,89,0.00,,,0.00,,2013-02-12 12:11:00,
2013-02-12 06:21:00,20.0,17.0,30.09,SW,215,2.0,8.0,88,0.00,,,0.00,,2013-02-12 12:21:00,
2013-02-12 06:32:00,20.0,17.0,30.09,SW,215,5.0,8.0,89,0.00,,,0.00,,2013-02-12 12:32:00,
2013-02-12 06:42:00,20.0,17.0,30.09,SW,215,5.0,8.0,89,0.00,,,0.00,,2013-02-12 12:42:00,
2013-02-12 06:52:00,20.0,18.0,30.09,SW,217,8.0,12.0,90,0.00,,,0.00,,2013-02-12 12:52:00,
2013-02-12 07:01:00,20.0,18.0,30.09,SW,217,8.0,12.0,90,0.00,,,0.00,,2013-02-12 13:01:00,
2013-02-12 07:11:00,20.0,18.0,30.09,SW,217,8.0,12.0,90,0.00,,,0.00,,2013-02-12 13:11:00,
2013-02-12 07:22:00,20.0,17.0,30.09,SW,225,12.0,16.0,89,0.00,,,0.00,,2013-02-12 13:22:00,
2013-02-12 07:32:00,20.0,17.0,30.09,SW,233,9.0,14.0,88,0.00,,,0.00,,2013-02-12 13:32:00,
2013-02-12 07:42:00,20.0,17.0,30.09,SW,233,9.0,14.0,88,0.00,,,0.00,,2013-02-12 13:42:00,
2013-02-12 07:51:00,20.0,17.0,30.09,SW,226,9.0,13.0,89,0.00,,,0.00,,2013-02-12 13:51:00,
2013-02-12 08:01:00,20.0,17.0,30.10,SW,215,7.0,12.0,89,0.00,,,0.00,,2013-02-12 14:01:00,
2013-02-12 08:11:00,20.0,17.0,30.10,SW,215,7.0,12.0,89,0.00,,,0.00,,2013-02-12 14:11:00,
2013-02-12 08:21:00,20.0,17.0,30.09,SW,225,5.0,9.0,89,0.00,,,0.00,,2013-02-12 14:21:00,
2013-02-12 08:32:00,21.0,18.0,30.09,SW,235,9.0,12.0,88,0.00,,,0.00,,2013-02-12 14:32:00,
2013-02-12 08:42:00,21.0,18.0,30.09,SW,235,9.0,12.0,88,0.00,,,0.00,,2013-02-12 14:42:00,
2013-02-12 08:52:00,22.0,19.0,30.08,WSW,246,8.0,14.0,87,0.00,,,0.00,,2013-02-12 14:52:00,
2013-02-12 09:02:00,23.0,19.0,30.08,SW,229,7.0,11.0,86,0.00,,,0.00,,2013-02-12 15:02:00,
2013-02-12 09:11:00,24.0,20.0,30.08,SW,220,6.0,9.0,85,0.00,,,0.00,,2013-02-12 15:11:00,
2013-02-12 09:21:00,24.0,20.0,30.08,SW,220,6.0,9.0,85,0.00,,,0.00,,2013-02-12 15:21:00,
2013-02-12 09:32:00,25.0,21.0,30.08,SSW,203,6.0,14.0,84,0.00,,,0.00,,2013-02-12 15:32:00,
2013-02-12 09:42:00,25.0,21.0,30.08,SSW,203,6.0,14.0,84,0.00,,,0.00,,2013-02-12 15:42:00,
2013-02-12 09:52:00,26.0,21.0,30.07,WSW,239,8.0,12.0,82,0.00,,,0.00,,2013-02-12 15:52:00,
2013-02-12 10:01:00,27.0,22.0,30.06,SW,226,5.0,9.0,82,0.00,,,0.00,,2013-02-12 16:01:00,
2013-02-12 10:11:00,27.0,22.0,30.06,SW,226,5.0,9.0,82,0.00,,,0.00,,2013-02-12 16:11:00,
2013-02-12 10:22:00,28.0,23.0,30.05,SW,236,7.0,11.0,80,0.00,,,0.00,,2013-02-12 16:22:00,
2013-02-12 10:32:00,29.0,23.0,30.05,WSW,238,5.0,10.0,79,0.00,,,0.00,,2013-02-12 16:32:00,
2013-02-12 10:41:00,29.0,23.0,30.05,WSW,238,5.0,10.0,79,0.00,,,0.00,,2013-02-12 16:41:00,
2013-02-12 10:51:00,30.0,24.0,30.04,SW,229,6.0,11.0,79,0.00,,,0.00,,2013-02-12 16:51:00,
2013-02-12 11:01:00,30.0,24.0,30.04,WSW,239,8.0,11.0,78,0.00,,,0.00,,2013-02-12 17:01:00,
2013-02-12 11:12:00,30.0,24.0,30.04,WSW,239,8.0,11.0,78,0.00,,,0.00,,2013-02-12 17:12:00,
2013-02-12 11:21:00,31.0,25.0,30.04,WSW,241,6.0,10.0,77,0.00,,,0.00,,2013-02-12 17:21:00,
2013-02-12 11:32:00,32.0,26.0,30.03,WSW,250,7.0,11.0,78,0.00,,,0.00,,2013-02-12 17:32:00,
2013-02-12 11:42:00,32.0,26.0,30.03,WSW,250,7.0,11.0,78,0.00,,,0.00,,2013-02-12 17:42:00,
2013-02-12 11:52:00,32.0,25.0,30.03,SW,231,10.0,14.0,74,0.00,,,0.00,,2013-02-12 17:52:00,
2013-02-12 12:01:00,33.0,27.0,30.02,SW,221,9.0,13.0,77,0.00,,,0.00,,2013-02-12 18:01:00,
2013-02-12 12:11:00,33.0,27.0,30.02,SW,221,9.0,13.0,77,0.00,,,0.00,,2013-02-12 18:11:00,
2013-02-12 12:23:00,33.0,27.0,30.01,SSW,194,6.0,13.0,77,0.00,,,0.00,,2013-02-12 18:23:00,
2013-02-12 12:32:00,34.0,27.0,30.01,SW,215,7.0,12.0,76,0.00,,,0.00,,2013-02-12 18:32:00,
2013-02-12 12:41:00,34.0,27.0,30.01,SW,215,7.0,12.0,76,0.00,,,0.00,,2013-02-12 18:41:00,
2013-02-12 12:51:00,35.0,29.0,30.01,WSW,257,7.0,12.0,79,0.00,,,0.00,,2013-02-12 18:51:00,
2013-02-12 13:02:00,34.0,28.0,30.00,SW,226,7.0,14.0,78,0.00,,,0.00,,2013-02-12 19:02:00,
2013-02-12 13:11:00,34.0,28.0,30.00,SW,226,7.0,14.0,78,0.00,,,0.00,,2013-02-12 19:11:00,
2013-02-12 13:21:00,35.0,29.0,30.00,SW,233,8.0,14.0,77,0.00,,,0.00,,2013-02-12 19:21:00,
2013-02-12 13:31:00,35.0,28.0,29.99,SW,232,9.0,16.0,76,0.00,,,0.00,,2013-02-12 19:31:00,
2013-02-12 13:41:00,35.0,28.0,29.99,SW,232,9.0,16.0,76,0.00,,,0.00,,2013-02-12 19:41:00,
2013-02-12 13:51:00,35.0,28.0,29.99,South,188,9.0,13.0,75,0.00,,,0.00,,2013-02-12 19:51:00,
2013-02-12 14:01:00,35.0,29.0,29.99,SW,233,8.0,13.0,78,0.00,,,0.00,,2013-02-12 20:01:00,
2013-02-12 14:11:00,35.0,29.0,29.99,SW,233,8.0,13.0,78,0.00,,,0.00,,2013-02-12 20:11:00,
2013-02-12 14:21:00,35.0,29.0,29.98,SW,222,11.0,14.0,79,0.00,,,0.00,,2013-02-12 20:21:00,
2013-02-12 14:32:00,35.0,29.0,29.98,SW,222,11.0,14.0,79,0.00,,,0.00,,2013-02-12 20:32:00,
2013-02-12 14:41:00,35.0,29.0,29.98,SW,222,11.0,14.0,79,0.00,,,0.00,,2013-02-12 20:41:00,
2013-02-12 14:52:00,37.0,29.0,29.97,SW,222,8.0,12.0,74,0.00,,,0.00,,2013-02-12 20:52:00,
2013-02-12 15:01:00,38.0,32.0,29.96,SW,227,4.0,11.0,78,0.00,,,0.00,,2013-02-12 21:01:00,
2013-02-12 15:11:00,38.0,32.0,29.96,SW,227,4.0,11.0,78,0.00,,,0.00,,2013-02-12 21:11:00,
2013-02-12 15:21:00,38.0,31.0,29.96,WSW,238,5.0,13.0,77,0.00,,,0.00,,2013-02-12 21:21:00,
2013-02-12 15:31:00,38.0,32.0,29.95,SW,225,7.0,12.0,78,0.00,,,0.00,,2013-02-12 21:31:00,
2013-02-12 15:42:00,38.0,31.0,29.95,SW,231,5.0,11.0,77,0.00,,,0.00,,2013-02-12 21:42:00,
2013-02-12 15:51:00,38.0,31.0,29.95,SW,231,5.0,11.0,77,0.00,,,0.00,,2013-02-12 21:51:00,
2013-02-12 16:01:00,38.0,31.0,29.95,SW,229,4.0,10.0,76,0.00,,,0.00,,2013-02-12 22:01:00,
2013-02-12 16:12:00,38.0,31.0,29.95,SW,229,4.0,10.0,76,0.00,,,0.00,,2013-02-12 22:12:00,
2013-02-12 16:21:00,39.0,32.0,29.95,SW,215,4.0,11.0,77,0.00,,,0.00,,2013-02-12 22:21:00,
2013-02-12 16:32:00,39.0,32.0,29.94,SW,222,4.0,9.0,77,0.00,,,0.00,,2013-02-12 22:32:00,
2013-02-12 16:41:00,39.0,32.0,29.94,SW,222,4.0,9.0,77,0.00,,,0.00,,2013-02-12 22:41:00,
2013-02-12 16:51:00,39.0,32.0,29.94,SW,215,1.0,6.0,75,0.00,,,0.00,,2013-02-12 22:51:00,
2013-02-12 17:01:00,39.0,32.0,29.94,SW,215,1.0,6.0,75,0.00,,,0.00,,2013-02-12 23:01:00,
2013-02-12 17:11:00,37.0,31.0,29.93,SW,228,2.0,4.0,79,0.00,,,0.00,,2013-02-12 23:11:00,
2013-02-12 17:21:00,37.0,31.0,29.93,SW,228,2.0,4.0,79,0.00,,,0.00,,2013-02-12 23:21:00,
2013-02-12 17:32:00,37.0,31.0,29.93,West,267,0.0,4.0,79,0.00,,,0.00,,2013-02-12 23:32:00,
2013-02-12 17:42:00,37.0,31.0,29.93,West,267,0.0,4.0,79,0.00,,,0.00,,2013-02-12 23:42:00,
2013-02-12 17:52:00,36.0,30.0,29.93,WSW,252,0.0,1.0,80,0.00,,,0.00,,2013-02-12 23:52:00,
2013-02-12 18:02:00,34.0,30.0,29.93,WSW,252,0.0,0.0,84,0.00,,,0.00,,2013-02-13 00:02:00,
2013-02-12 18:11:00,34.0,30.0,29.93,WSW,252,0.0,0.0,84,0.00,,,0.00,,2013-02-13 00:11:00,
2013-02-12 18:21:00,33.0,30.0,29.93,WSW,252,0.0,1.0,88,0.00,,,0.00,,2013-02-13 00:21:00,
2013-02-12 18:32:00,31.0,28.0,29.94,WSW,252,0.0,0.0,88,0.00,,,0.00,,2013-02-13 00:32:00,
2013-02-12 18:42:00,31.0,28.0,29.94,WSW,252,0.0,0.0,88,0.00,,,0.00,,2013-02-13 00:42:00,
2013-02-12 18:52:00,32.0,29.0,29.94,West,269,0.0,2.0,89,0.00,,,0.00,,2013-02-13 00:52:00,
2013-02-12 19:01:00,33.0,29.0,29.94,WNW,297,1.0,4.0,85,0.00,,,0.00,,2013-02-13 01:01:00,
2013-02-12 19:11:00,33.0,29.0,29.94,WNW,297,1.0,4.0,85,0.00,,,0.00,,2013-02-13 01:11:00,
2013-02-12 19:21:00,33.0,29.0,29.94,West,268,1.0,2.0,85,0.00,,,0.00,,2013-02-13 01:21:00,
2013-02-12 19:31:00,33.0,29.0,29.94,West,268,1.0,2.0,85,0.00,,,0.00,,2013-02-13 01:31:00,
2013-02-12 19:42:00,33.0,29.0,29.94,West,268,1.0,2.0,85,0.00,,,0.00,,2013-02-13 01:42:00,
2013-02-12 19:51:00,32.0,29.0,29.94,WNW,300,1.0,3.0,87,0.00,,,0.00,,2013-02-13 01:51:00,
2013-02-12 20:01:00,32.0,28.0,29.94,NNW,329,0.0,3.0,86,0.00,,,0.00,,2013-02-13 02:01:00,
2013-02-12 20:11:00,32.0,28.0,29.94,NNW,329,0.0,3.0,86,0.00,,,0.00,,2013-02-13 02:11:00,
2013-02-12 20:21:00,31.0,28.0,29.94,West,278,0.0,2.0,87,0.00,,,0.00,,2013-02-13 02:21:00,
2013-02-12 20:31:00,30.0,27.0,29.93,West,278,1.0,4.0,88,0.00,,,0.00,,2013-02-13 02:31:00,
2013-02-12 20:41:00,30.0,27.0,29.93,West,278,1.0,4.0,88,0.00,,,0.00,,2013-02-13 02:41:00,
2013-02-12 20:52:00,31.0,27.0,29.93,WNW,290,1.0,5.0,86,0.00,,,0.00,,2013-02-13 02:52:00,
2013-02-12 21:01:00,30.0,27.0,29.93,WSW,249,0.0,2.0,88,0.00,,,0.00,,2013-02-13 03:01:00,
2013-02-12 21:11:00,30.0,26.0,29.93,West,278,1.0,4.0,86,0.00,,,0.00,,2013-02-13 03:11:00,
2013-02-12 21:21:00,30.0,26.0,29.93,West,278,1.0,4.0,86,0.00,,,0.00,,2013-02-13 03:21:00,
2013-02-12 21:32:00,30.0,26.0,29.93,West,271,0.0,5.0,86,0.00,,,0.00,,2013-02-13 03:32:00,
2013-02-12 21:41:00,30.0,26.0,29.93,West,271,0.0,5.0,86,0.00,,,0.00,,2013-02-13 03:41:00,
2013-02-12 21:51:00,29.0,26.0,29.92,West,260,0.0,1.0,87,0.00,,,0.00,,2013-02-13 03:51:00,
2013-02-12 22:01:00,29.0,26.0,29.91,WNW,286,0.0,2.0,88,0.00,,,0.00,,2013-02-13 04:01:00,
2013-02-12 22:11:00,29.0,26.0,29.91,WNW,286,0.0,2.0,88,0.00,,,0.00,,2013-02-13 04:11:00,
2013-02-12 22:21:00,29.0,26.0,29.92,West,274,0.0,3.0,87,0.00,,,0.00,,2013-02-13 04:21:00,
2013-02-12 22:32:00,29.0,25.0,29.91,WNW,291,2.0,5.0,85,0.00,,,0.00,,2013-02-13 04:32:00,
2013-02-12 22:41:00,29.0,25.0,29.91,WNW,291,2.0,5.0,85,0.00,,,0.00,,2013-02-13 04:41:00,
2013-02-12 22:51:00,29.0,25.0,29.92,West,280,1.0,3.0,85,0.00,,,0.00,,2013-02-13 04:51:00,
2013-02-12 23:01:00,29.0,25.0,29.91,WNW,297,1.0,6.0,85,0.00,,,0.00,,2013-02-13 05:01:00,
2013-02-12 23:11:00,29.0,25.0,29.91,WNW,297,1.0,6.0,85,0.00,,,0.00,,2013-02-13 05:11:00,
2013-02-12 23:22:00,29.0,25.0,29.91,West,274,1.0,4.0,85,0.00,,,0.00,,2013-02-13 05:22:00,
2013-02-12 23:31:00,28.0,24.0,29.91,West,281,0.0,3.0,86,0.00,,,0.00,,2013-02-13 05:31:00,
2013-02-12 23:42:00,28.0,24.0,29.91,West,281,0.0,3.0,86,0.00,,,0.00,,2013-02-13 05:42:00,
2013-02-12 23:52:00,27.0,24.0,29.91,West,271,0.0,2.0,87,0.00,,,0.00,,2013-02-13 05:52:00,